Broomfield, CO

11:53 PM MDT on July 27, 2016 (GMT -0600)
Jeffco

Weather History for KBJC - December, 2012

Change the Weather History Date:

Tuesday, December 4, 2012

  Actual Average Record
Temperature  
Mean Temperature 44 °F -  
Max Temperature 57 °F 44 °F 69 °F (2007)
Min Temperature 32 °F 26 °F 0 °F (2013)
Degree Days  
Heating Degree Days 20    
Moisture  
Dew Point 9 °F    
Average Humidity 28    
Maximum Humidity 94    
Minimum Humidity 12    
Precipitation  
Precipitation 0.00 in - - ()
Sea Level Pressure  
Sea Level Pressure 30.22 in    
Wind  
Wind Speed 8 mph (WNW)    
Max Wind Speed 23 mph    
Max Gust Speed 33 mph    
Visibility 12 miles    
Events      
Averages and records for this station are not official NWS values.
T = Trace of Precipitation, MM = Missing Value Source: NWS Daily Summary

Daily Weather History Graph

Daily Weather History Graph

Search for Another Location

Airport or City:

Trip Planner

Search our weather history database for the weather conditions in past years. The results will help you decide how hot, cold, wet, or windy it might be!

Date:

Astronomy

Dec. 04, 2012 Rise Set
Actual Time 7:06 AM MST 4:35 PM MST
Civil Twilight 6:36 AM MST 5:05 PM MST
Nautical Twilight 6:02 AM MST 5:39 PM MST
Astronomical Twilight 5:29 AM MST 6:11 PM MST
Moon 10:25 PM MST (12/4) 11:01 AM MST (12/4)
Length of Visible Light 10h 29m
Length of Day
9h 29m
Waning Gibbous, 69% of the Moon is Illuminated
Dec 4
Waning Gibbous
Dec 6
Last Quarter
Dec 13
New
Dec 19
First Quarter
Dec 28
Full

Hourly Weather History & Observations

Time (MST) Temp. Windchill Dew Point Humidity Pressure Visibility Wind Dir Wind Speed Gust Speed Precip Events Conditions
12:16 AM 35.6 °F 28.6 °F 8.6 °F 33% 30.19 in 10.0 mi NW 9.2 mph - N/A   Clear
12:36 AM 35.6 °F 26.2 °F 8.6 °F 33% 30.19 in 10.0 mi NW 15.0 mph - N/A   Clear
12:56 AM 35.6 °F 25.5 °F 8.6 °F 33% 30.21 in 10.0 mi NNW 17.3 mph - N/A   Clear
1:16 AM 35.6 °F 26.2 °F 8.6 °F 33% 30.22 in 10.0 mi NNW 15.0 mph - N/A   Clear
1:56 AM 33.8 °F 27.7 °F 8.6 °F 35% 30.22 in 10.0 mi North 6.9 mph - N/A   Clear
2:15 AM 33.8 °F - 8.6 °F 35% 30.23 in 10.0 mi Calm Calm - N/A   Clear
2:36 AM 33.8 °F 28.6 °F 6.8 °F 32% 30.23 in 10.0 mi North 5.8 mph - N/A   Clear
2:56 AM 33.8 °F 28.6 °F 6.8 °F 32% 30.23 in 10.0 mi NNW 5.8 mph - N/A   Clear
3:16 AM 32.0 °F 28.7 °F 8.6 °F 38% 30.24 in 10.0 mi South 3.5 mph - N/A   Clear
3:36 AM 32.0 °F 27.5 °F 5.0 °F 32% 30.25 in 10.0 mi West 4.6 mph - N/A   Clear
3:56 AM 32.0 °F 26.4 °F 5.0 °F 32% 30.25 in 10.0 mi West 5.8 mph - N/A   Clear
4:16 AM 33.8 °F - 5.0 °F 30% 30.25 in 10.0 mi Calm Calm - N/A   Clear
4:36 AM 32.0 °F 28.7 °F 5.0 °F 32% 30.26 in 10.0 mi WNW 3.5 mph - N/A   Clear
4:55 AM 33.8 °F 29.6 °F 5.0 °F 30% 30.27 in 10.0 mi West 4.6 mph - N/A   Clear
5:47 AM 37.4 °F - 3.2 °F 24% 30.29 in 30.0 mi Calm Calm - N/A   Partly Cloudy
6:47 AM 32.0 °F - 5.0 °F 32% 30.30 in 70.0 mi Calm Calm - N/A   Partly Cloudy
7:45 AM 33.8 °F 30.8 °F 8.6 °F 35% 30.31 in 70.0 mi Variable 3.5 mph - N/A   Scattered Clouds
8:52 AM 39.2 °F - 10.4 °F 31% 30.32 in 70.0 mi Calm Calm - N/A   Mostly Cloudy
9:51 AM 41.0 °F 38.0 °F 10.4 °F 29% 30.32 in 70.0 mi Variable 4.6 mph - N/A   Overcast
10:46 AM 42.8 °F 38.6 °F 8.6 °F 25% 30.30 in 70.0 mi SE 6.9 mph - N/A   Mostly Cloudy
11:47 AM 44.6 °F 43.1 °F 8.6 °F 23% 30.27 in 50.0 mi SSW 3.5 mph - N/A   Mostly Cloudy
12:55 PM 48.2 °F - 6.8 °F 19% 30.23 in 50.0 mi South 5.8 mph - N/A   Mostly Cloudy
1:50 PM 51.8 °F - 3.2 °F 14% 30.20 in 50.0 mi Variable 3.5 mph - N/A   Mostly Cloudy
2:47 PM 55.4 °F - 19.4 °F 25% 30.19 in 50.0 mi Variable 6.9 mph - N/A   Mostly Cloudy
3:46 PM 51.8 °F - 3.2 °F 14% 30.17 in 50.0 mi SSE 4.6 mph - N/A   Mostly Cloudy
4:25 PM 55.4 °F - 5.0 °F 13% 30.16 in 50.0 mi WSW 19.6 mph 25.3 mph N/A   Mostly Cloudy
4:48 PM 57.2 °F - 5.0 °F 12% 30.16 in 40.0 mi West 23.0 mph 33.4 mph N/A   Mostly Cloudy
5:53 PM 55.4 °F - 8.6 °F 15% 30.06 in 20.0 mi West 19.6 mph 27.6 mph N/A   Mostly Cloudy
6:52 PM 55.4 °F - 8.6 °F 15% 30.17 in 30.0 mi WNW 13.8 mph 33.4 mph N/A   Mostly Cloudy
7:01 PM 48.2 °F - 8.6 °F 20% 30.18 in 30.0 mi North 12.7 mph - N/A   Mostly Cloudy
7:46 PM 48.2 °F - 8.6 °F 20% 30.17 in 20.0 mi NW 4.6 mph - N/A   Mostly Cloudy
8:46 PM 44.6 °F - 10.4 °F 25% 30.19 in 20.0 mi Calm Calm - N/A   Mostly Cloudy
9:53 PM 51.8 °F - 50.0 °F 94% 30.20 in 20.0 mi Variable 4.6 mph - N/A   Overcast
10:16 PM 46.4 °F 44.3 °F 8.6 °F 22% 30.20 in 10.0 mi ESE 4.6 mph - N/A   Clear
10:36 PM 46.4 °F 44.3 °F 8.6 °F 22% 30.19 in 10.0 mi SSW 4.6 mph - N/A   Clear
10:56 PM 46.4 °F - 8.6 °F 22% 30.19 in 10.0 mi Calm Calm - N/A   Clear
11:16 PM 48.2 °F - 12.2 °F 24% 30.18 in 10.0 mi WSW 8.1 mph - N/A   Clear
11:35 PM 50.0 °F - 12.2 °F 22% 30.17 in 10.0 mi NNE 3.5 mph - N/A   Clear
11:56 PM 50.0 °F - 12.2 °F 22% 30.17 in 10.0 mi North 4.6 mph - N/A   Clear